Change the Weather History Date:

Friday, September 19, 2014

  Actual Average Record
Temperature  
Mean Temperature 54 °F 60 °F  
Max Temperature 68 °F 71 °F 88 °F (2002)
Min Temperature 39 °F 49 °F 37 °F (2012)
Degree Days  
Heating Degree Days 11    
Month to date heating degree days 101  
Since 1 July heating degree days 127  
Cooling Degree Days 0    
Month to date cooling degree days 50  
Year to date cooling degree days 535  
Growing Degree Days 4 (Base 50)    
Moisture  
Dew Point 44 °F    
Average Humidity 71    
Maximum Humidity 92    
Minimum Humidity 49    
Precipitation  
Precipitation 0.00 in 0.14 in 1.10 in (1997)
Month to date precipitation 2.03 2.46  
Year to date precipitation 24.14 22.98  
Snow  
Snow 0.00 in - - ()
Month to date snowfall 0.0  
Since 1 July snowfall 0.0  
Since 1 September snowfall 0.0  
Snow Depth 0.00 in    
Sea Level Pressure  
Sea Level Pressure 30.18 in    
Wind  
Wind Speed 7 mph (South)    
Max Wind Speed 16 mph    
Max Gust Speed 23 mph    
Visibility 10 miles    
Events      
T = Trace of Precipitation, MM = Missing Value Source: NWS Daily Summary

Daily Weather History Graph

Daily Weather History Graph

Search for Another Location

Airport or City:

Trip Planner

Search our weather history database for the weather conditions in past years. The results will help you decide how hot, cold, wet, or windy it might be!

Date:

Astronomy

Sep. 19, 2014 Rise Set
Actual Time 7:20 AM EDT 7:39 PM EDT
Civil Twilight 6:51 AM EDT 8:07 PM EDT
Nautical Twilight 6:17 AM EDT 8:41 PM EDT
Astronomical Twilight 5:43 AM EDT 9:15 PM EDT
Moon 2:58 AM EDT (9/19) 5:12 PM EDT (9/19)
Length of Visible Light 13h 16m
Length of Day
12h 18m
Waning Crescent, 18% of the Moon is Illuminated
Sep 19
Waning Crescent
Sep 24
New
Oct 1
First Quarter
Oct 8
Full
Oct 15
Last Quarter

Hourly Weather History & Observations

Time (EDT) Temp. Windchill Dew Point Humidity Pressure Visibility Wind Dir Wind Speed Gust Speed Precip Events Conditions
12:53 AM 42.1 °F 40.2 °F 37.9 °F 85% 30.27 in 10.0 mi ESE 3.5 mph - N/A   Clear
1:53 AM 43.0 °F - 39.0 °F 86% 30.28 in 10.0 mi Calm Calm - N/A   Clear
2:53 AM 39.9 °F - 37.0 °F 89% 30.28 in 10.0 mi Calm Calm - N/A   Clear
3:53 AM 41.0 °F 39.0 °F 37.0 °F 86% 30.27 in 10.0 mi NE 3.5 mph - N/A   Clear
4:53 AM 39.9 °F - 36.0 °F 86% 30.26 in 10.0 mi Calm Calm - N/A   Partly Cloudy
5:53 AM 39.0 °F - 37.0 °F 93% 30.27 in 10.0 mi Calm Calm - N/A   Clear
6:53 AM 39.0 °F - 37.0 °F 93% 30.27 in 10.0 mi Calm Calm - N/A   Partly Cloudy
7:53 AM 41.0 °F - 37.9 °F 89% 30.28 in 10.0 mi Calm Calm - N/A   Clear
8:53 AM 46.4 °F - 42.8 °F 87% 30.28 in 10.0 mi Calm Calm - N/A   Clear
9:53 AM 51.1 °F - 44.1 °F 77% 30.29 in 10.0 mi SSE 6.9 mph - N/A   Clear
10:53 AM 55.0 °F - 45.0 °F 69% 30.27 in 10.0 mi SSE 8.1 mph - N/A   Clear
11:53 AM 57.9 °F - 45.0 °F 62% 30.25 in 10.0 mi South 8.1 mph - N/A   Clear
12:53 PM 61.0 °F - 44.1 °F 54% 30.22 in 10.0 mi South 8.1 mph - N/A   Clear
1:53 PM 64.0 °F - 46.9 °F 54% 30.21 in 10.0 mi SSW 9.2 mph - N/A   Clear
2:53 PM 66.0 °F - 48.9 °F 54% 30.16 in 10.0 mi South 8.1 mph - N/A   Clear
3:53 PM 66.9 °F - 50.0 °F 54% 30.15 in 10.0 mi South 9.2 mph - N/A   Partly Cloudy
4:53 PM 68.0 °F - 48.0 °F 49% 30.12 in 10.0 mi SSW 9.2 mph - N/A   Clear
5:53 PM 68.0 °F - 48.0 °F 49% 30.08 in 10.0 mi South 12.7 mph - N/A   Clear
6:53 PM 64.0 °F - 48.9 °F 58% 30.06 in 10.0 mi South 8.1 mph - N/A   Clear
7:53 PM 61.0 °F - 48.9 °F 64% 30.05 in 10.0 mi South 9.2 mph - N/A   Clear
8:53 PM 59.0 °F - 46.9 °F 64% 30.04 in 10.0 mi South 9.2 mph - N/A   Clear
9:53 PM 57.2 °F - 46.4 °F 67% 30.02 in 10.0 mi South 12.7 mph - N/A   Clear
10:53 PM 59.0 °F - 48.9 °F 69% 30.03 in 10.0 mi South 15.0 mph - N/A   Clear
11:53 PM 57.0 °F - 50.0 °F 77% 30.00 in 10.0 mi South 15.0 mph 23.0 mph N/A   Clear